Tracking 31027 objects as of 19-Jul-2025
HD Live streaming from Space Station
objects crossing your sky now

STARLINK-30258

Track STARLINK-30258 now!
10-day predictions
STARLINK-30258 is classified as:


NORAD ID: 57608
Int'l Code: 2023-119G
Perigee: 565.2 km
Apogee: 567.2 km
Inclination: 43.0 °
Period: 95.8 minutes
Semi major axis: 6937 km
RCS: Unknown
Launch date: August 11, 2023
Source: United States (US)
Launch site: AIR FORCE EASTERN TEST RANGE (AFETR)
Your satellite tracking list
CZ-4C DEB
Track 1 satellite(s)




NASA's NSSDC Master Catalog

Two Line Element Set (TLE):
1 57608U 23119G   25199.54239212 -.00000186  00000-0  13090-5 0  9990
2 57608  43.0024 273.9409 0001466 276.4733  83.5943 15.02533047107868
Source of the keplerian elements: AFSPC